• Join FlightAware (Why Join?)
  • Login
  • US Flag 
11:52AM EDT


 

Airport Tracker/Info


-or-


 

Live Flight TrackerFlight Track Log ✈ AAL2386 ✈ 05-Feb-2014 ✈ KDFW - KAUS

Flight Track Log - Related Links

Times and Time Zones

All times are in EST time to prevent confusion due to time zone crossing. See the AAL2386 flight status page for this flight to view local times or setup timezone preferences in your user account.

Time Position Orientation Groundspeed Altitude Reporting Facility
EST Latitude Longitude Course Direction KTS MPH feet Rate Location/Type
12:55AM 32.9000 -97.0333 360° North 158 182 1,400  Level Dallas / Fort Worth TRACON
12:56AM 32.9333 -97.0333 360° North 200 230 3,100 2,400 Climbing Dallas / Fort Worth TRACON
12:57AM 33.0000 -97.0000 23° Northeast 239 275 5,800 2,340 Climbing Dallas / Fort Worth TRACON
12:58AM 33.0000 -96.9333 90° East 274 315 7,800 2,340 Climbing Dallas / Fort Worth TRACON
01:00AM 32.8772 -96.9453 185° South 291 335 12,200 2,340 Climbing Fort Worth Center
01:01AM 32.7844 -96.9675 191° South 336 387 14,300 2,700 Climbing Fort Worth Center
01:02AM 32.6889 -96.9900 191° South 346 398 17,600 2,520 Climbing Fort Worth Center
01:03AM 32.5958 -97.0136 192° South 342 394 19,400 1,680 Climbing Fort Worth Center
01:04AM 32.4986 -97.0372 192° South 353 406 21,100 1,080 Climbing Fort Worth Center
01:05AM 32.4006 -97.0603 191° South 364 419 21,700 420 Climbing Fort Worth Center
01:06AM 32.2947 -97.0844 191° South 358 412 22,000 120 Climbing Fort Worth Center
01:07AM 32.2169 -97.1028 191° South 351 404 22,000  Level Fort Worth Center
01:08AM 32.1222 -97.1250 191° South 347 399 22,000  Level Fort Worth Center
01:09AM 32.0244 -97.1472 191° South 356 410 22,000  Level Fort Worth Center
01:10AM 31.9147 -97.1744 192° South 370 426 22,000  Level Fort Worth Center
01:11AM 31.8122 -97.1972 191° South 370 426 22,000  Level Fort Worth Center
01:12AM 31.7117 -97.2203 191° South 365 420 22,000  Level Fort Worth Center
01:13AM 31.6094 -97.2458 192° South 366 421 22,000  Level Houston Center
01:14AM 31.5092 -97.2681 191° South 363 418 22,000  Level Houston Center
01:15AM 31.4103 -97.2908 191° South 359 413 22,000  Level Houston Center
01:16AM 31.3111 -97.3153 192° South 360 414 22,000  Level Houston Center
01:17AM 31.2119 -97.3383 191° South 361 415 22,000 -240 Level Houston Center
01:18AM 31.1144 -97.3667 194° South 360 414 21,600 -1,440 Descending Houston Center
01:19AM 31.0192 -97.3961 195° South 356 410 19,200 -2,340 Descending Houston Center
01:20AM 30.9258 -97.4233 194° South 350 403 17,000 -2,340 Descending Houston Center
01:21AM 30.8325 -97.4528 195° South 347 399 14,600 -1,860 Descending Houston Center
01:22AM 30.7431 -97.4686 189° South 329 379 13,300 -1,320 Descending Houston Center
01:23AM 30.6606 -97.4692 180° South 299 344 12,000 -1,380 Descending Houston Center
01:24AM 30.5831 -97.4706 181° South 283 326 10,600 -1,800 Descending Houston Center
01:25AM 30.5119 -97.4761 184° South 261 300 8,400 -2,040 Descending Houston Center
01:26AM 30.4406 -97.4869 187° South 256 295 6,600 -1,200 Descending Houston Center
01:27AM 30.3681 -97.4983 188° South 258 297 6,000 -900 Descending Houston Center
01:28AM 30.3011 -97.5100 189° South 247 284 4,900 -1,380 Descending Houston Center
01:29AM 30.2331 -97.5269 192° South 246 283 3,300 -900 Descending Houston Center
01:30AM 30.1608 -97.5431 191° South 257 296 3,100 -480 Descending Houston Center
01:31AM 30.1325 -97.5981 239° Southwest 200 230 2,400 -840 Descending Houston Center
01:32AM 30.1342 -97.6444 272° West 161 185 1,500 -600 Descending Houston Center
01:33AM 30.1600 -97.6631 328° Northwest 150 173 1,200 -300 Descending Houston Center